Location: St. Louis
(38.6270°N, 90.1994°W)
Time: 08:28:54
(UTC-06:00)

SR - Pass Details

Date: 04 December 2021
Orbit: 582 x 872 km, 66.7° (Epoch: 21 January)

Event Time Altitude Azimuth Distance (km) Brightness Sun altitude
Rises 08:53:29 0° 323° (NW) 2,840 ? 16.2°
Reaches altitude 10° 08:55:46 10° 316° (NW) 1,958 ? 16.5°
Maximum altitude 08:59:52 41° 247° (WSW) 917 ? 17.0°
Drops below altitude 10° 09:04:15 10° 177° (S) 2,075 ? 17.6°
Sets 09:06:44 0° 170° (S) 3,033 ? 17.9°
